User: anonymous   Login
Location: Unspecified
(0.0000°N, 0.0000°E)
Time: 23:35:26
(UTC+00:00)
Language:

FORMOSAT 3D - Orbit

View from above orbital plane
View from above orbital plane
View from above satellite
View from above satellite

Ground track
Ground track

The orbit data is extracted from the following two-line orbital elements,

1 29050U 06011D   18142.50292363 +.00000102 +00000-0 +31942-4 0  9996
2 29050 072.0142 157.2444 0052074 260.6703 098.8559 14.58663115646047
Epoch (UTC): 22 May 2018 12:04:12
Eccentricity: 0.0052074
inclination: 72.0142°
perigee height: 660 km
apogee height: 734 km
right ascension of ascending node: 157.2444°
argument of perigee: 260.6703°
revolutions per day: 14.58663115
mean anomaly at epoch: 98.8559°
orbit number at epoch: 64604

The dashed part of the orbit path shows where the satellite is in the earth's shadow,  

DLR